Regional Weather Roundup
Issued by NWS

Home | Current Version | Previous Version | Text Only | Print | Product List | Glossary Off
Versions: 1 2 3 4 5 6 7 8 9 10 11 12 13 14 15 16 17 18 19 20 21 22 23 24 25 26 27 28 29 30 31 32 33 34 35 36 37 38 39 40 41 42 43 44 45 46 47 48 49 50

000
ASUS43 KOAX 290110
RWRNE

WEATHER ROUNDUP FOR NEBRASKA
NATIONAL WEATHER SERVICE OMAHA NE
800 PM CDT MON JUL 28 2014

NOTES: SATELLITE DATA IS BEING USED TO AUGMENT CLOUD COVER ABOVE
       12000 FEET.
       "FAIR" INDICATES FEW OR NO CLOUDS BELOW 12,000 FEET WITH NO
       SIGNIFICANT WEATHER AND/OR OBSTRUCTIONS TO VISIBILITY.

  * THESE STATIONS DO NOT REPORT WEATHER SUCH AS RAIN...SNOW OR FOG.

NEZ001>004-019>022-054>056-290200-
NEBRASKA PANHANDLE

CITY           SKY/WX    TMP DP  RH WIND       PRES   REMARKS
SCOTTSBLUFF    SUNNY     85  59  41 E10       30.18F
ALLIANCE       MOSUNNY   85  54  34 SE14      30.20F
CHADRON        SUNNY     85  55  35 E14       30.17S
KIMBALL        CLOUDY    69  62  76 SE6       30.25R
SIDNEY         PTSUNNY   82  55  39 SE10      30.23F
$$

NEZ057>060-069>072-079>082-290200-
SOUTHWEST NEBRASKA

CITY           SKY/WX    TMP DP  RH WIND       PRES   REMARKS
NORTH PLATTE   SUNNY     77  59  53 SE13      30.20F
IMPERIAL       PTSUNNY   85  55  35 SE8       30.19S
LEXINGTON      CLEAR     78  61  55 E9        30.20F
MCCOOK         PTCLDY    79  59  50 E14       30.18R
OGALLALA       SUNNY     80  60  49 E13       30.20S
$$

NEZ005>010-023>029-035>040-094-290200-
NORTH CENTRAL NEBRASKA

CITY           SKY/WX    TMP DP  RH WIND       PRES   REMARKS
VALENTINE      SUNNY     79  51  37 E13       30.22F
AINSWORTH      SUNNY     75  53  46 E5        30.23S
BROKEN BOW     CLEAR     76  58  53 E7        30.22F
O`NEILL        PTCLDY    74  53  47 E7        30.23S
ORD            CLEAR     74  57  55 E5        30.20F
THEDFORD       MOSUNNY   79  56  45 E6        30.23S
$$

NEZ041-046>049-061>064-073>077-083>087-290200-
SOUTH CENTRAL NEBRASKA

CITY           SKY/WX    TMP DP  RH WIND       PRES   REMARKS
GRAND ISLAND   CLEAR     74  57  55 E7        30.22F
AURORA         CLEAR     73  58  59 NE5       30.22S
HASTINGS       CLEAR     74  56  53 NE7       30.21F
HEBRON         CLEAR     74  55  51 NE7       30.20F
HOLDREGE       CLEAR     76  59  57 E7        30.21S
KEARNEY *      CLEAR     75  57  53 NE8       30.22F
YORK           CLEAR     72  57  60 NE7       30.22F
$$

NEZ011>018-030>034-042>045-290200-
NORTHEAST NEBRASKA

CITY           SKY/WX    TMP DP  RH WIND       PRES   REMARKS
NORFOLK        CLEAR     73  51  46 N7        30.21F
ALBION         CLEAR     71  56  57 E3        30.22F
BLAIR          CLEAR     73  55  54 NW5       30.19S
COLUMBUS *     CLEAR     52  52 100 N6        30.22S
FREMONT        CLEAR     74  55  51 NW7       30.20S
TEKAMAH        CLEAR     75  56  51 NW7       30.18S
WAYNE          CLEAR     71  59  65 NW3       30.21S
$$

NEZ050>053-065>068-078-088>093-290200-
SOUTHEAST NEBRASKA

CITY           SKY/WX    TMP DP  RH WIND       PRES   REMARKS
LINCOLN        CLEAR     76  53  44 N9        30.20F
OMAHA EPPLEY   PTCLDY    75  55  49 NW8       30.17S
BEATRICE       CLEAR     73  56  54 N7        30.20S
FALLS CITY     CLEAR     74  56  53 N3        30.16S
NEBRASKA CITY  CLEAR     72  55  53 N5        30.18S
PLATTSMOUTH    CLEAR     74  55  51 NW3       30.18S
$$

NEZ044-045-051>053-067-290200-
OMAHA AREA

CITY           SKY/WX    TMP DP  RH WIND       PRES   REMARKS
OMAHA EPPLEY   PTCLDY    75  55  49 NW8       30.17S
BLAIR          CLEAR     73  55  54 NW5       30.19S
FREMONT        CLEAR     74  55  51 NW7       30.20S
MILLARD        CLEAR     76  54  45 NW5       30.18S
OFFUTT AFB     CLEAR     74  55  51 NW5       30.17S
PLATTSMOUTH    CLEAR     74  55  51 NW3       30.18S
WAHOO          FAIR      73  55  53 NW5       30.20S
$$



USA.gov is the U.S. government's official web portal to all federal, state and local government web resources and services.